Chumuckla Elementary School FL US WEATHERSTEM current weather conditions

sailwx.info

Air temperature 18.2° C
Dewpoint -1.2° C

Last reported at 2020-Jan-28 22:00 UTC.
Time now 2020-Jan-28 23:10 UTC

Location: N 30°47' W 087°13'.
View on Google Maps.

See reports from other nearby stations

  
Tides and Currents Weather Stations Pressure Air Temp Water Temp Dewpoint Dewpoint Depression Visibility Wind Speed Wind Dir Waves Ship Positions
date/time (UTC)wind fromknots sea level pressurealtimeterstation pressurevisibilityair tempwater tempwave heightnotes
2020-Jan-28 22:00 18.2
2020-Jan-28 21:40 024 1 gusting 5 17.8
2020-Jan-28 21:30 042 2 gusting 4 18.0
2020-Jan-28 21:20 132 0 gusting 2 18.0
2020-Jan-28 21:10 076 0 gusting 1 18.2
2020-Jan-28 21:00 076 0 gusting 2 18.0
2020-Jan-28 20:50 028 2 gusting 4 17.7
2020-Jan-28 20:40 049 0 gusting 4 17.8
2020-Jan-28 20:30 074 0 gusting 3 17.8
2020-Jan-28 20:20 330 2 gusting 5 17.8
2020-Jan-28 20:10 360 2 gusting 6 17.7
2020-Jan-28 20:00 119 0 gusting 11 18.0
2020-Jan-28 19:50 17.8
2020-Jan-28 19:40 117 3 gusting 5 17.8
2020-Jan-28 19:30 074 0 gusting 6 17.6
2020-Jan-28 19:20 286 0 gusting 7 17.7
2020-Jan-28 19:10 141 0 gusting 6 17.6
2020-Jan-28 19:00 148 2 gusting 6 17.6
2020-Jan-28 18:50 16.8
2020-Jan-28 18:40 169 3 gusting 8 17.1
2020-Jan-28 18:30 131 3 gusting 7 16.8
2020-Jan-28 18:20 142 1 gusting 6 16.7
2020-Jan-28 18:10 082 2 gusting 9 16.5
2020-Jan-28 18:00 091 3 gusting 6 16.3
2020-Jan-28 17:50 074 3 gusting 9 15.9
2020-Jan-28 17:40 107 5 gusting 9 16.2
2020-Jan-28 17:30 128 8 gusting 8 15.8
2020-Jan-28 17:20 139 6 gusting 11 15.4
2020-Jan-28 17:10 112 5 gusting 6 15.4
2020-Jan-28 17:00 138 2 gusting 9 14.9
2020-Jan-28 16:50 082 3 gusting 9 14.6
2020-Jan-28 16:40 073 4 gusting 10 14.3
2020-Jan-28 16:30 080 3 gusting 11 14.2
2020-Jan-28 16:20 099 5 gusting 8 13.8
2020-Jan-28 16:10 162 5 gusting 9 13.5
2020-Jan-28 16:00 051 2 gusting 6 13.3
2020-Jan-28 15:40 072 7 gusting 5 12.1
2020-Jan-28 15:30 067 0 gusting 6 11.3
2020-Jan-28 15:20 10.6
2020-Jan-28 15:10 043 5 gusting 6 10.1
2020-Jan-28 15:00 065 3 gusting 7 9.8
2020-Jan-28 14:50 060 1 gusting 4 9.4
2020-Jan-28 14:40 086 1 gusting 8 8.7
2020-Jan-28 14:30 038 3 gusting 5 8.2
2020-Jan-28 14:20 034 2 gusting 4 7.7
2020-Jan-28 14:10 036 1 gusting 4 7.0
2020-Jan-28 14:00 005 1 gusting 3 6.0
2020-Jan-28 13:50 360 1 gusting 2 5.4
2020-Jan-28 13:40 355 0 gusting 1 5.0
2020-Jan-28 13:30 4.1
2020-Jan-28 13:20 3.5
2020-Jan-28 13:10 3.2
2020-Jan-28 13:00 4.0
2020-Jan-28 12:50 4.0
2020-Jan-28 12:40 3.7
2020-Jan-28 12:30 3.9
2020-Jan-28 12:20 4.0
2020-Jan-28 12:10 4.5
2020-Jan-28 12:00 4.3
2020-Jan-28 11:50 4.4
2020-Jan-28 11:40 4.7
2020-Jan-28 11:30 4.3
2020-Jan-28 11:20 4.6
2020-Jan-28 11:10 4.8
2020-Jan-28 11:00 4.3
2020-Jan-28 10:50 4.1
2020-Jan-28 10:30 4.3
2020-Jan-28 10:20 4.1
2020-Jan-28 10:10 4.3
2020-Jan-28 10:00 4.0
2020-Jan-28 09:50 4.2
2020-Jan-28 09:40 4.1
2020-Jan-28 09:30 3.9
2020-Jan-28 09:20 4.2
2020-Jan-28 09:10 4.1
2020-Jan-28 09:00 4.7
2020-Jan-28 08:50 4.9
2020-Jan-28 08:40 4.7
2020-Jan-28 08:30 4.8
2020-Jan-28 08:20 5.3
2020-Jan-28 08:10 6.0
2020-Jan-28 08:00 5.8
2020-Jan-28 07:50 5.9
2020-Jan-28 07:40 6.2
2020-Jan-28 07:30 6.2
2020-Jan-28 07:20 6.2
2020-Jan-28 07:10 6.3
2020-Jan-28 07:00 6.3
2020-Jan-28 06:50 6.2
2020-Jan-28 06:40 6.1
2020-Jan-28 06:30 6.1
2020-Jan-28 06:20 6.2
2020-Jan-28 06:10 6.3
2020-Jan-28 06:00 5.9
2020-Jan-28 05:50 6.2
2020-Jan-28 05:40 6.2
2020-Jan-28 05:30 6.4
2020-Jan-28 05:20 6.4
2020-Jan-28 05:10 6.1
2020-Jan-28 04:50 6.3
2020-Jan-28 04:40 6.6
2020-Jan-28 04:30 6.7
2020-Jan-28 04:20 7.1
2020-Jan-28 04:10 355 0 gusting 1 7.6
2020-Jan-28 04:00 8.1
2020-Jan-28 03:50 8.1
2020-Jan-28 03:40 8.1
2020-Jan-28 03:30 8.1
2020-Jan-28 03:20 355 0 gusting 2 8.2
2020-Jan-28 03:10 355 1 gusting 2 8.3
2020-Jan-28 03:00 355 0 gusting 2 8.4
2020-Jan-28 02:50 355 1 gusting 2 8.3
2020-Jan-28 02:40 355 0 gusting 2 8.4
2020-Jan-28 02:30 355 1 gusting 2 8.7
2020-Jan-28 02:10 355 1 gusting 2 8.6
2020-Jan-28 02:00 355 1 gusting 2 8.7
2020-Jan-28 01:50 8.4
2020-Jan-28 01:40 9.0
2020-Jan-28 01:30 8.7
2020-Jan-28 01:20 8.8
2020-Jan-28 01:10 8.8
2020-Jan-28 01:00 8.8
2020-Jan-28 00:50 8.9
2020-Jan-28 00:40 9.3
2020-Jan-28 00:30 9.6
2020-Jan-28 00:20 9.8
2020-Jan-28 00:00 10.7
2020-Jan-27 23:50 11.1
2020-Jan-27 23:40 355 0 gusting 1 11.2
2020-Jan-27 23:30 11.4
2020-Jan-27 23:20 355 0 gusting 3 11.9
2020-Jan-27 23:10 005 1 gusting 2 12.2
2020-Jan-27 23:00 005 1 gusting 5 12.6
2020-Jan-27 22:50 024 3 gusting 5 12.9
2020-Jan-27 22:40 024 1 gusting 5 12.9
2020-Jan-27 22:30 025 1 gusting 6 13.1
2020-Jan-27 22:20 023 3 gusting 4 13.1
2020-Jan-27 22:10 009 1 gusting 6 13.1
2020-Jan-27 22:00 015 1 gusting 4 13.0
2020-Jan-27 21:50 019 2 gusting 9 13.1
2020-Jan-27 21:40 336 3 gusting 6 13.2
2020-Jan-27 21:30 031 4 gusting 13 13.1
2020-Jan-27 21:20 360 3 gusting 7 12.9
2020-Jan-27 21:10 013 2 gusting 6 12.9
2020-Jan-27 21:00 011 2 gusting 10 13.1
2020-Jan-27 20:50 005 3 gusting 7 12.9
2020-Jan-27 20:40 360 2 gusting 7 12.9
2020-Jan-27 20:10 042 4 gusting 11 12.6
2020-Jan-27 20:00 336 1 gusting 6 12.8
2020-Jan-27 19:40 349 6 gusting 10 12.3
2020-Jan-27 19:30 352 2 gusting 8 12.3
2020-Jan-27 19:20 314 4 gusting 9 12.3
2020-Jan-27 19:10 340 4 gusting 11 12.6
2020-Jan-27 19:00 005 5 gusting 8 12.7
2020-Jan-27 18:50 011 6 gusting 11 12.7
2020-Jan-27 18:40 350 6 gusting 12 12.9
2020-Jan-27 18:30 337 5 gusting 10 13.4
2020-Jan-27 18:20 352 7 gusting 13 13.3
2020-Jan-27 18:10 345 5 gusting 12 13.2
2020-Jan-27 18:00 020 3 gusting 12 13.2
2020-Jan-27 17:50 345 2 gusting 11 13.3
2020-Jan-27 17:40 012 4 gusting 10 13.3
2020-Jan-27 17:30 016 3 gusting 9 13.6
2020-Jan-27 17:20 026 3 gusting 11 13.8
2020-Jan-27 17:10 342 2 gusting 9 13.6
2020-Jan-27 17:00 024 3 gusting 9 13.9
2020-Jan-27 16:50 034 7 gusting 7 13.8
2020-Jan-27 16:40 071 3 gusting 7 13.8
2020-Jan-27 16:30 016 2 gusting 6 13.3
2020-Jan-27 16:20 360 4 gusting 6 12.7
2020-Jan-27 16:10 033 2 gusting 5 12.3
2020-Jan-27 16:00 023 4 gusting 4 11.7
2020-Jan-27 15:50 049 1 gusting 6 11.2
2020-Jan-27 15:40 025 2 gusting 5 10.7
2020-Jan-27 15:30 030 2 gusting 4 10.4
2020-Jan-27 15:20 020 2 gusting 3 10.2
2020-Jan-27 15:10 360 1 gusting 4 9.9
2020-Jan-27 15:00 026 1 gusting 4 9.8
2020-Jan-27 14:40 025 1 gusting 4 9.4
2020-Jan-27 14:30 039 3 gusting 4 9.3
2020-Jan-27 14:20 017 3 gusting 7 9.2
2020-Jan-27 14:10 026 2 gusting 5 9.2
2020-Jan-27 14:00 9.1
2020-Jan-27 13:50 8.9
2020-Jan-27 13:40 025 1 gusting 3 8.8
2020-Jan-27 13:30 022 0 gusting 3 8.7
2020-Jan-27 13:20 026 1 gusting 3 8.6
2020-Jan-27 13:10 029 1 gusting 4 8.6
2020-Jan-27 13:00 344 0 gusting 3 8.6
2020-Jan-27 12:50 341 2 gusting 4 8.6
2020-Jan-27 12:40 347 0 gusting 3 8.6
2020-Jan-27 12:30 005 1 gusting 5 8.5
2020-Jan-27 12:20 348 2 gusting 4 8.4
2020-Jan-27 12:10 333 1 gusting 4 8.4
2020-Jan-27 12:00 021 0 gusting 4 8.4
2020-Jan-27 11:50 083 0 gusting 2 8.3
2020-Jan-27 11:40 068 2 gusting 3 8.3
2020-Jan-27 11:30 024 0 gusting 3 8.3
2020-Jan-27 11:20 052 0 gusting 2 8.3
2020-Jan-27 11:10 030 2 gusting 4 8.2
2020-Jan-27 11:00 030 1 gusting 3 8.2
2020-Jan-27 10:50 036 1 gusting 4 8.1
2020-Jan-27 10:40 034 2 gusting 4 8.1
2020-Jan-27 10:30 048 1 gusting 4 8.1
2020-Jan-27 10:20 055 1 gusting 4 8.1
2020-Jan-27 10:10 045 0 gusting 2 8.1
2020-Jan-27 10:00 8.1
2020-Jan-27 09:50 078 0 gusting 4 8.1
2020-Jan-27 09:40 027 1 gusting 6 8.2
2020-Jan-27 09:30 021 2 gusting 6 8.3
2020-Jan-27 09:20 058 1 gusting 4 8.3
2020-Jan-27 09:10 080 0 gusting 4 8.3
2020-Jan-27 09:00 050 1 gusting 4 8.2
2020-Jan-27 08:50 091 1 gusting 5 8.3
2020-Jan-27 08:40 084 0 gusting 5 8.3
2020-Jan-27 08:30 057 0 gusting 3 8.3
2020-Jan-27 08:20 044 0 gusting 3 8.3
2020-Jan-27 08:10 005 2 gusting 3 8.3
2020-Jan-27 08:00 021 1 gusting 3 8.2
2020-Jan-27 07:50 042 1 gusting 3 8.2
2020-Jan-27 07:40 062 2 gusting 4 8.2
2020-Jan-27 07:30 038 3 gusting 6 8.2
2020-Jan-27 07:20 080 4 gusting 3 8.2
2020-Jan-27 07:10 060 0 gusting 4 8.2
2020-Jan-27 07:00 8.2
2020-Jan-27 06:50 8.2
2020-Jan-27 06:40 046 1 gusting 5 8.1
2020-Jan-27 06:30 062 1 gusting 4 8.1
2020-Jan-27 06:20 059 0 gusting 5 8.1
2020-Jan-27 06:10 8.1
2020-Jan-27 06:00 051 1 gusting 4 8.1
2020-Jan-27 05:50 069 2 gusting 4 8.1
2020-Jan-27 05:40 059 2 gusting 3 8.1
2020-Jan-27 05:30 059 0 gusting 4 8.1
2020-Jan-27 05:20 086 2 gusting 5 8.1
2020-Jan-27 05:10 067 1 gusting 4 8.1
2020-Jan-27 04:50 080 2 gusting 3 8.0
2020-Jan-27 04:40 076 1 gusting 5 8.0
2020-Jan-27 04:30 8.0
2020-Jan-27 04:20 078 1 gusting 5 8.0
2020-Jan-27 04:10 075 1 gusting 3 8.0
2020-Jan-27 04:00 072 0 gusting 3 8.1
2020-Jan-27 03:50 086 2 gusting 2 8.1
2020-Jan-27 03:40 096 2 gusting 5 8.1
2020-Jan-27 03:30 084 2 gusting 5 8.1
2020-Jan-27 03:20 107 2 gusting 6 8.1
2020-Jan-27 03:10 030 1 gusting 4 8.2
2020-Jan-27 03:00 111 1 gusting 7 8.2
2020-Jan-27 02:50 093 1 gusting 6 8.3
2020-Jan-27 02:30 082 2 gusting 7 8.2
2020-Jan-27 02:20 078 1 gusting 8 8.3
2020-Jan-27 02:10 103 2 gusting 6 8.2
2020-Jan-27 02:00 128 2 gusting 5 8.2
2020-Jan-27 01:50 098 0 gusting 6 8.2
2020-Jan-27 01:40 083 3 gusting 6 8.2
2020-Jan-27 01:30 123 0 gusting 7 8.1
2020-Jan-27 01:20 117 6 gusting 7 8.2
2020-Jan-27 01:10 098 3 gusting 6 8.2
2020-Jan-27 01:00 132 1 gusting 6 8.3
2020-Jan-27 00:50 096 2 gusting 6 8.3
2020-Jan-27 00:40 105 2 gusting 6 8.3
2020-Jan-27 00:20 105 3 gusting 6 8.4
2020-Jan-27 00:10 082 3 gusting 6 8.4
2020-Jan-27 00:00 099 1 gusting 5 8.5
2020-Jan-26 23:50 108 2 gusting 6 8.6
2020-Jan-26 23:40 119 6 gusting 8 8.6
2020-Jan-26 23:30 097 6 gusting 6 8.6
2020-Jan-26 23:20 126 4 gusting 8 8.6
2020-Jan-26 23:10 146 4 gusting 8 8.6
2020-Jan-26 23:00 150 3 gusting 10 8.6